Torna al catalogo

DELTA 1 DEB

AttivoLEO
NORAD 42648·DEBRIS·🇺🇸 United States

Lanciato Jun 12, 1975 da Vandenberg Space Force Base

Loading…

Prossimi Passaggi (prossime 24 ore)

TLE

In scadenzaSource: Space-Track

Epoca: Sep 11, 2026, 14:19 UTC

1 42648U 75052MH  26254.59655155  .00005652  00000-0  70968-2 0  9993
2 42648 100.3403   7.7612 0199152 258.7328  99.1369 13.56595921624131

Traccia DELTA 1 DEB in tempo reale con AllMySat

Download on the App Store